Location: El Bakhil
(32.7726°N, 5.5387°W)
Time: 13:41:18
(UTC+00:00)

MOZHAYETS 4 - Visible Passes

Search period start: 03 August 2021 00:00
Search period end: 13 August 2021 00:00
Orbit: 661 x 680 km, 98.1° (Epoch: 03 August)

Date Brightness Start Highest point End Pass type
(mag) Time Alt. Az. Time Alt. Az. Time Alt. Az.
03 Aug 9.2 02:40:44 32° N 02:40:44 32° N 02:43:12 10° N visible
04 Aug 10.4 01:35:52 15° NE 01:35:52 15° NE 01:37:35 10° NNE visible
04 Aug 9.5 03:14:05 21° NW 03:14:05 21° NW 03:15:48 10° NNW visible
05 Aug 9.7 02:09:13 26° NNE 02:09:13 26° NNE 02:11:35 10° N visible
05 Aug 10.1 03:47:28 10° NW 03:47:28 10° NW 03:47:29 10° NW visible
06 Aug 9.4 02:42:36 28° NNW 02:42:36 28° NNW 02:44:46 10° NNW visible
07 Aug 10.4 01:37:43 15° NE 01:37:43 15° NE 01:39:12 10° NNE visible
07 Aug 9.7 03:15:57 18° NW 03:15:57 18° NW 03:17:20 10° NNW visible
08 Aug 9.9 02:11:06 24° NNE 02:11:06 24° NNE 02:13:09 10° N visible
09 Aug 9.6 02:44:27 24° NNW 02:44:27 24° NNW 02:46:19 10° NNW visible
10 Aug 10.5 01:39:36 14° NE 01:39:36 14° NE 01:40:50 10° NNE visible
10 Aug 9.9 03:17:49 16° NW 03:17:49 16° NW 03:18:51 10° NNW visible
11 Aug 10.0 02:12:57 22° NNE 02:12:57 22° NNE 02:14:44 10° N visible
12 Aug 9.8 02:46:19 21° NNW 02:46:19 21° NNW 02:47:51 10° NNW visible
